Change the Weather History Date:

Saturday, November 5, 2011

  Actual Average Record
Temperature  
Mean Temperature 32 °F 44 °F  
Max Temperature 40 °F 55 °F 73 °F (1949)
Min Temperature 23 °F 32 °F 21 °F (1993)
Degree Days  
Heating Degree Days 33 21  
Month to date heating degree days 139 103  
Since 1 July heating degree days 586 656  
Cooling Degree Days 0 0  
Month to date cooling degree days 0 0  
Year to date cooling degree days 488 544  
Moisture  
Dew Point 29 °F    
Average Humidity 86    
Maximum Humidity 96    
Minimum Humidity 72    
Precipitation  
Precipitation 0.04 in 0.10 in 1.04 in (1973)
Month to date precipitation 0.07 0.48  
Year to date precipitation 10.86 13.32  
Sea Level Pressure  
Sea Level Pressure 29.89 in    
Wind  
Wind Speed 5 mph (North)    
Max Wind Speed 23 mph    
Max Gust Speed 29 mph    
Visibility 7 miles    
Events Rain , Snow    
T = Trace of Precipitation, MM = Missing Value Source: NWS Daily Summary

Daily Weather History Graph

Daily Weather History Graph

Search for Another Location

Airport or City:

Trip Planner

Search our weather history database for the weather conditions in past years. The results will help you decide how hot, cold, wet, or windy it might be!

Date:

Astronomy

Nov. 05, 2011 Rise Set
Actual Time 7:46 AM PDT 5:59 PM PDT
Civil Twilight 7:17 AM PDT 6:28 PM PDT
Nautical Twilight 6:44 AM PDT 7:01 PM PDT
Astronomical Twilight 6:11 AM PDT 7:34 PM PDT
Moon 3:23 PM PDT (11/5) 2:58 AM PDT (11/5)
Length of Visible Light 11h 11m
Length of Day
10h 12m
Waxing Gibbous, 79% of the Moon is Illuminated
Nov 5
Waxing Gibbous
Nov 10
Full
Nov 18
Last Quarter
Nov 24
New
Dec 2
First Quarter

Hourly Weather History & Observations

Time (PDT) Temp. Windchill Dew Point Humidity Pressure Visibility Wind Dir Wind Speed Gust Speed Precip Events Conditions
12:53 AM 26.1 °F - 19.9 °F 78% 29.98 in 10.0 mi Calm Calm - N/A   Partly Cloudy
1:53 AM 27.0 °F 23.0 °F 21.0 °F 78% 29.98 in 10.0 mi ENE 3.5 mph - N/A   Mostly Cloudy
2:53 AM 26.1 °F 21.9 °F 21.0 °F 81% 29.97 in 10.0 mi North 3.5 mph - N/A   Mostly Cloudy
3:53 AM 25.0 °F - 19.9 °F 81% 29.95 in 10.0 mi Calm Calm - N/A   Scattered Clouds
5:53 AM 28.9 °F - 23.0 °F 78% 29.95 in 10.0 mi Calm Calm - N/A   Overcast
6:53 AM 30.0 °F - 23.0 °F 75% 29.96 in 10.0 mi Calm Calm - N/A   Overcast
8:04 AM 30.2 °F - 28.4 °F 93% 29.89 in 2.0 mi Calm Calm - 0.00 in Snow Light Snow
8:32 AM 30.2 °F - 28.4 °F 93% 29.89 in 1.5 mi Calm Calm - 0.00 in Snow Light Snow
8:50 AM 30.2 °F - 28.4 °F 93% 29.89 in 1.5 mi Calm Calm - 0.00 in Snow Light Snow
8:53 AM 30.0 °F - 28.0 °F 92% 29.96 in 1.2 mi Calm Calm - 0.00 in Snow Light Snow
9:53 AM 30.0 °F 26.5 °F 28.9 °F 96% 29.97 in 1.5 mi West 3.5 mph - 0.01 in Snow Light Snow
10:25 AM 30.2 °F - 30.2 °F 100% 29.88 in 1.8 mi Calm Calm - 0.01 in Snow Light Snow
10:32 AM 32.0 °F - 30.2 °F 93% 29.88 in 2.5 mi Calm Calm - 0.01 in Snow Light Snow
10:43 AM 32.0 °F 28.7 °F 30.2 °F 93% 29.88 in 2.0 mi NNE 3.5 mph - 0.01 in Snow Light Snow
10:53 AM 32.0 °F 28.7 °F 30.0 °F 92% 29.96 in 2.5 mi NE 3.5 mph - 0.01 in Snow Light Snow
10:57 AM 32.0 °F 28.7 °F 30.2 °F 93% 29.88 in 3.0 mi NE 3.5 mph - 0.00 in Snow Light Snow
11:07 AM 32.0 °F 28.7 °F 30.2 °F 93% 29.88 in 2.0 mi NNE 3.5 mph - 0.00 in Snow Light Snow
11:24 AM 33.8 °F 29.6 °F 30.2 °F 87% 29.87 in 3.0 mi NNE 4.6 mph - 0.00 in Snow Light Snow
11:33 AM 33.8 °F 28.6 °F 32.0 °F 93% 29.87 in 1.8 mi North 5.8 mph - 0.00 in Snow Light Snow
11:46 AM 33.8 °F 28.6 °F 32.0 °F 93% 29.86 in 3.0 mi NNE 5.8 mph - 0.00 in Snow Light Snow
12:02 PM 33.8 °F 28.6 °F 32.0 °F 93% 29.86 in 4.0 mi North 5.8 mph - 0.00 in Snow Light Snow
12:10 PM 33.8 °F 28.6 °F 32.0 °F 93% 29.86 in 2.5 mi North 5.8 mph - 0.00 in Snow Light Snow
12:53 PM 37.0 °F 31.6 °F 34.0 °F 89% 29.91 in 10.0 mi North 6.9 mph - 0.00 in   Mostly Cloudy
1:21 PM 39.2 °F 37.0 °F 33.8 °F 81% 29.81 in 10.0 mi Variable 3.5 mph - N/A   Mostly Cloudy
1:53 PM 39.0 °F 36.8 °F 34.0 °F 82% 29.87 in 10.0 mi North 3.5 mph - N/A   Overcast
2:53 PM 39.0 °F 32.8 °F 34.0 °F 82% 29.85 in 10.0 mi North 9.2 mph - N/A   Overcast
3:50 PM 39.2 °F 30.8 °F 32.0 °F 75% 29.78 in 10.0 mi South 15.0 mph 21.9 mph 0.00 in Rain Light Rain
3:53 PM 39.0 °F 30.3 °F 32.0 °F 76% 29.86 in 9.0 mi South 16.1 mph - 0.00 in Rain Light Rain
4:51 PM 39.2 °F 30.5 °F 32.0 °F 75% 29.78 in 10.0 mi South 16.1 mph - 0.02 in   Overcast
4:53 PM 39.0 °F 29.3 °F 30.9 °F 73% 29.86 in 10.0 mi South 19.6 mph 24.2 mph 0.02 in   Overcast
5:53 PM 39.0 °F 31.0 °F 30.9 °F 73% 29.86 in 9.0 mi South 13.8 mph 21.9 mph 0.00 in Rain Light Rain
6:53 PM 37.9 °F 32.7 °F 32.0 °F 79% 29.87 in 10.0 mi WSW 6.9 mph - 0.00 in Rain Light Rain
7:53 PM 36.0 °F 33.3 °F 32.0 °F 86% 29.87 in 10.0 mi SW 3.5 mph - 0.00 in   Overcast
8:53 PM 33.1 °F - 30.9 °F 92% 29.88 in 10.0 mi Calm Calm - N/A   Scattered Clouds
9:53 PM 30.9 °F - 28.9 °F 92% 29.88 in 10.0 mi Calm Calm - N/A   Mostly Cloudy
10:53 PM 32.0 °F - 30.0 °F 92% 29.88 in 10.0 mi Calm Calm - N/A   Overcast
11:53 PM 33.1 °F 30.0 °F 30.9 °F 92% 29.88 in 10.0 mi North 3.5 mph - N/A   Overcast